SKY MUSTER 2 (NBN1B)

Last updated on Wed Sep 17 2025 00:02:49 GMT+0000 (Coordinated Universal Time)

1 41794U 16060B 25258.89874405 -.00000262 00000+0 00000+0 0 9994 2 41794 0.0203 241.0968 0001279 300.2745 282.0719 1.00270266 32774
UTC large
Height (km)
Speed (km/s)
/
Latitude / Longitude
Inclination (degrees)
Orbital Period (minutes)
Azimuth
Elevation
Range (km)
Doppler Factor

Next 0 passes for location: London (51.5072 / 0.1276)

Sorry there are no passes over London.